Precipitable_Water
0.56 0.57 0.56 0.51 0.49 0.48 0.43 0.44 0.36 0.37 0.37 0.37 0.33 0.28 0.25 0.22 0.22 0.22 0.22 0.25 0.29 0.31 0.31 0.33 0.33 0.36 0.46 0.53 0.57 0.61 0.63 0.64 0.64 0.61 0.59 0.56 0.52 0.45 0.43 0.42 0.42 0.40 0.41 0.44
0.46 0.50 0.48 0.42 0.45 0.45 0.43 0.42 0.39 0.37 0.29 0.29 0.25 0.20 0.18 0.20 0.21 0.20 0.22 0.24 0.27 0.29 0.30 0.32 0.35 0.39 0.48 0.53 0.60 0.65 0.62 0.62 0.61 0.59 0.58 0.54 0.49 0.45 0.43 0.41 0.39 0.38 0.37 0.37
0.38 0.42 0.39 0.32 0.36 0.37 0.36 0.37 0.31 0.21 0.20 0.18 0.16 0.16 0.19 0.19 0.21 0.23 0.24 0.27 0.28 0.30 0.32 0.35 0.37 0.43 0.51 0.53 0.57 0.58 0.59 0.60 0.59 0.58 0.55 0.53 0.49 0.45 0.42 0.40 0.38 0.35 0.33 0.32
0.38 0.38 0.27 0.34 0.37 0.34 0.31 0.24 0.20 0.17 0.15 0.17 0.16 0.18 0.21 0.24 0.26 0.27 0.30 0.33 0.32 0.34 0.34 0.39 0.41 0.47 0.55 0.55 0.56 0.56 0.56 0.59 0.58 0.56 0.53 0.49 0.44 0.42 0.40 0.39 0.36 0.34 0.33 0.33
0.35 0.32 0.34 0.34 0.34 0.25 0.17 0.13 0.13 0.14 0.16 0.16 0.16 0.19 0.21 0.28 0.30 0.31 0.34 0.38 0.39 0.39 0.39 0.42 0.46 0.49 0.52 0.52 0.52 0.53 0.54 0.53 0.51 0.47 0.44 0.42 0.41 0.40 0.39 0.38 0.37 0.35 0.35 0.33
0.36 0.30 0.24 0.25 0.23 0.21 0.17 0.08 0.16 0.16 0.15 0.15 0.18 0.13 0.19 0.29 0.34 0.35 0.38 0.40 0.41 0.42 0.45 0.44 0.45 0.46 0.46 0.43 0.43 0.41 0.41 0.41 0.42 0.44 0.41 0.39 0.40 0.40 0.40 0.39 0.37 0.37 0.35 0.36
0.33 0.28 0.23 0.19 0.21 0.20 0.08 0.13 0.17 0.15 0.17 0.19 0.18 0.21 0.26 0.33 0.35 0.37 0.38 0.38 0.38 0.39 0.38 0.39 0.40 0.40 0.38 0.36 0.34 0.35 0.37 0.36 0.38 0.36 0.34 0.35 0.37 0.39 0.38 0.38 0.39 0.38 0.36 0.37
0.24 0.18 0.12 0.19 0.20 0.11 0.16 0.15 0.15 0.17 0.20 0.21 0.23 0.26 0.30 0.33 0.35 0.35 0.34 0.33 0.34 0.35 0.35 0.36 0.38 0.36 0.32 0.31 0.32 0.31 0.31 0.31 0.31 0.31 0.30 0.30 0.30 0.30 0.31 0.32 0.32 0.35 0.38 0.39
0.14 0.12 0.17 0.19 0.16 0.18 0.17 0.16 0.16 0.18 0.22 0.25 0.26 0.28 0.31 0.32 0.33 0.33 0.33 0.31 0.31 0.31 0.31 0.31 0.31 0.31 0.26 0.27 0.28 0.28 0.27 0.26 0.27 0.27 0.28 0.29 0.28 0.28 0.29 0.30 0.29 0.32 0.36 0.38
0.13 0.11 0.14 0.16 0.19 0.19 0.21 0.20 0.20 0.21 0.23 0.27 0.28 0.31 0.33 0.34 0.33 0.32 0.32 0.29 0.28 0.27 0.25 0.26 0.28 0.28 0.26 0.25 0.27 0.26 0.25 0.25 0.25 0.25 0.25 0.27 0.28 0.28 0.28 0.29 0.29 0.31 0.36 0.39
0.13 0.14 0.14 0.14 0.16 0.17 0.18 0.19 0.20 0.24 0.28 0.31 0.33 0.33 0.34 0.33 0.33 0.33 0.31 0.27 0.25 0.24 0.24 0.25 0.27 0.27 0.27 0.26 0.25 0.24 0.25 0.25 0.26 0.25 0.26 0.26 0.27 0.28 0.29 0.32 0.34 0.33 0.36 0.41
0.10 0.14 0.13 0.14 0.16 0.19 0.20 0.20 0.23 0.25 0.30 0.35 0.37 0.35 0.36 0.35 0.34 0.33 0.29 0.25 0.24 0.23 0.24 0.25 0.27 0.28 0.27 0.27 0.26 0.24 0.23 0.24 0.25 0.25 0.26 0.26 0.26 0.26 0.32 0.34 0.37 0.39 0.41 0.42
0.14 0.18 0.19 0.21 0.23 0.24 0.23 0.24 0.26 0.31 0.36 0.35 0.36 0.37 0.38 0.36 0.35 0.33 0.31 0.28 0.25 0.25 0.25 0.27 0.27 0.27 0.28 0.27 0.26 0.24 0.23 0.24 0.25 0.25 0.25 0.25 0.25 0.25 0.24 0.30 0.37 0.39 0.40 0.42
0.21 0.22 0.19 0.22 0.23 0.27 0.27 0.29 0.34 0.38 0.39 0.39 0.38 0.38 0.38 0.37 0.36 0.34 0.33 0.32 0.31 0.30 0.28 0.29 0.29 0.29 0.29 0.28 0.27 0.26 0.25 0.25 0.24 0.25 0.25 0.26 0.26 0.26 0.27 0.27 0.28 0.33 0.40 0.41
0.22 0.24 0.24 0.27 0.28 0.29 0.33 0.36 0.37 0.38 0.38 0.37 0.37 0.36 0.37 0.36 0.35 0.35 0.37 0.36 0.35 0.34 0.32 0.32 0.31 0.30 0.32 0.32 0.29 0.28 0.27 0.26 0.25 0.24 0.25 0.26 0.27 0.27 0.27 0.28 0.29 0.32 0.36 0.41
0.26 0.28 0.30 0.31 0.32 0.35 0.37 0.37 0.35 0.35 0.36 0.36 0.36 0.36 0.37 0.39 0.39 0.39 0.40 0.39 0.36 0.34 0.35 0.34 0.33 0.33 0.33 0.32 0.30 0.30 0.30 0.29 0.27 0.26 0.25 0.24 0.25 0.25 0.26 0.27 0.29 0.31 0.34 0.38
0.25 0.25 0.28 0.29 0.30 0.31 0.31 0.33 0.35 0.36 0.36 0.36 0.37 0.39 0.39 0.39 0.38 0.37 0.37 0.38 0.37 0.35 0.35 0.35 0.34 0.34 0.32 0.30 0.28 0.28 0.28 0.28 0.27 0.26 0.26 0.24 0.24 0.24 0.25 0.26 0.28 0.30 0.34 0.40
0.32 0.32 0.33 0.33 0.32 0.32 0.32 0.32 0.32 0.33 0.33 0.35 0.35 0.35 0.34 0.33 0.33 0.34 0.35 0.35 0.35 0.34 0.34 0.35 0.34 0.33 0.31 0.30 0.27 0.26 0.26 0.26 0.25 0.25 0.25 0.24 0.23 0.24 0.25 0.26 0.28 0.30 0.34 0.39
0.35 0.35 0.36 0.36 0.36 0.34 0.32 0.30 0.29 0.27 0.28 0.29 0.29 0.29 0.30 0.31 0.31 0.31 0.32 0.31 0.30 0.29 0.32 0.33 0.32 0.30 0.29 0.28 0.26 0.24 0.24 0.24 0.23 0.23 0.23 0.23 0.24 0.24 0.24 0.26 0.27 0.29 0.33 0.36
0.35 0.36 0.34 0.32 0.32 0.30 0.29 0.28 0.27 0.25 0.25 0.26 0.26 0.24 0.24 0.25 0.25 0.25 0.25 0.25 0.25 0.26 0.29 0.29 0.28 0.28 0.27 0.27 0.26 0.24 0.24 0.23 0.22 0.21 0.21 0.20 0.22 0.23 0.24 0.25 0.26 0.28 0.32 0.35
0.28 0.28 0.27 0.27 0.26 0.27 0.26 0.26 0.24 0.23 0.23 0.24 0.23 0.22 0.23 0.24 0.24 0.24 0.22 0.21 0.26 0.26 0.25 0.25 0.25 0.24 0.24 0.22 0.21 0.22 0.23 0.22 0.20 0.19 0.19 0.19 0.20 0.21 0.22 0.23 0.25 0.28 0.30 0.34
0.22 0.20 0.20 0.19 0.18 0.18 0.19 0.20 0.19 0.19 0.18 0.18 0.18 0.19 0.18 0.19 0.19 0.19 0.20 0.19 0.20 0.21 0.20 0.19 0.19 0.19 0.20 0.18 0.17 0.18 0.19 0.18 0.17 0.18 0.18 0.18 0.18 0.18 0.20 0.22 0.24 0.27 0.29 0.34
0.17 0.16 0.16 0.16 0.15 0.15 0.15 0.16 0.17 0.17 0.17 0.17 0.17 0.17 0.16 0.16 0.16 0.15 0.14 0.16 0.17 0.17 0.16 0.15 0.16 0.16 0.15 0.15 0.15 0.16 0.16 0.16 0.15 0.15 0.16 0.17 0.18 0.18 0.18 0.19 0.23 0.26 0.28 0.32
0.15 0.15 0.15 0.15 0.14 0.14 0.14 0.14 0.15 0.15 0.15 0.14 0.15 0.15 0.14 0.13 0.14 0.15 0.15 0.15 0.15 0.15 0.15 0.15 0.15 0.15 0.14 0.14 0.13 0.13 0.14 0.14 0.14 0.14 0.14 0.16 0.17 0.18 0.18 0.19 0.21 0.23 0.27 0.30
0.15 0.14 0.13 0.13 0.13 0.13 0.14 0.14 0.14 0.14 0.13 0.13 0.14 0.14 0.15 0.15 0.14 0.15 0.15 0.16 0.16 0.16 0.16 0.16 0.16 0.16 0.16 0.15 0.15 0.15 0.14 0.14 0.14 0.14 0.14 0.14 0.15 0.16 0.17 0.18 0.19 0.21 0.23 0.29
0.12 0.12 0.12 0.12 0.13 0.13 0.13 0.13 0.12 0.13 0.13 0.12 0.14 0.15 0.16 0.17 0.17 0.17 0.17 0.17 0.17 0.17 0.17 0.18 0.17 0.17 0.17 0.17 0.16 0.16 0.15 0.15 0.15 0.14 0.13 0.14 0.15 0.16 0.16 0.16 0.17 0.19 0.22 0.26
0.11 0.12 0.12 0.12 0.13 0.13 0.13 0.13 0.13 0.13 0.14 0.15 0.15 0.16 0.16 0.17 0.17 0.17 0.17 0.17 0.16 0.16 0.17 0.17 0.17 0.17 0.17 0.17 0.17 0.17 0.17 0.16 0.15 0.15 0.14 0.14 0.14 0.15 0.16 0.16 0.17 0.18 0.20 0.21
Wind_Speed
29 30 30 32 33 31 32 34 33 38 39 39 40 41 44 46 46 45 46 45 45 44 43 38 34 32 29 29 24 12 9 6 6 7 9 12 10 11 11 12 15 17 18 19
26 30 30 34 34 34 35 36 38 38 40 36 38 43 43 41 42 44 44 44 42 40 37 32 27 24 26 25 12 4 4 4 5 8 10 10 11 12 12 13 13 15 16 17
26 23 28 33 33 32 32 32 32 34 35 38 38 37 38 40 40 40 40 41 39 35 31 25 21 22 19 17 7 4 5 5 7 10 11 13 14 15 16 17 18 18 19 20
24 25 27 23 24 26 28 29 31 34 35 32 33 35 36 36 36 35 35 36 33 29 24 19 18 16 14 12 8 4 5 7 11 14 16 18 18 19 20 20 21 22 22 23
23 25 30 31 28 26 27 31 32 31 28 31 33 33 31 29 31 32 32 30 28 22 17 15 13 13 12 11 11 11 11 13 16 17 18 19 20 21 22 22 22 23 24 25
22 25 27 23 23 24 27 31 22 23 28 31 30 28 27 28 28 27 25 23 20 18 10 10 11 11 11 11 12 12 13 14 16 16 17 18 19 20 21 22 23 24 26 27
26 27 29 26 24 24 24 23 22 27 29 28 28 27 28 26 25 22 21 19 17 14 11 10 11 11 11 12 13 14 14 15 15 16 17 18 20 21 23 24 26 27 29 30
24 25 29 22 20 24 23 25 28 29 28 27 27 26 25 24 22 20 18 16 14 12 12 12 12 12 11 11 13 14 14 15 16 17 19 20 22 23 25 27 28 30 31 31
24 24 24 24 26 28 27 28 29 28 27 26 26 26 25 23 22 20 18 16 15 14 13 13 12 12 12 13 14 15 15 16 17 19 20 22 24 26 27 28 28 28 29 27
24 26 30 29 30 31 31 31 29 28 27 27 27 27 25 24 23 21 19 18 17 16 16 15 14 13 14 14 15 16 16 18 19 21 22 23 25 25 26 27 27 27 26 24
27 30 32 32 31 30 31 30 28 28 28 28 27 26 26 24 24 22 21 20 18 17 17 17 17 17 17 17 18 18 18 19 21 22 23 24 25 26 27 28 27 27 25 23
24 25 27 29 29 28 28 28 29 30 29 29 28 28 27 26 25 24 23 21 21 20 20 20 20 20 20 20 20 21 21 21 22 23 24 25 26 27 28 28 28 27 25 23
28 27 29 30 30 30 31 31 32 30 30 30 30 30 29 29 27 26 25 24 24 23 23 23 23 23 23 23 23 23 24 24 24 24 25 26 26 27 29 29 28 26 24 22
26 27 28 29 29 30 30 31 31 31 32 32 32 32 31 30 29 29 28 27 27 27 27 26 26 26 26 25 25 26 25 25 25 25 26 26 27 28 29 29 28 27 24 22
26 28 28 30 30 30 30 30 31 31 31 32 32 32 32 32 32 32 31 30 30 30 30 29 29 29 29 29 28 28 28 27 27 27 27 28 28 28 29 29 29 27 25 21
27 29 28 28 28 28 29 29 30 31 31 32 32 31 32 32 33 32 32 32 32 32 32 32 32 32 32 32 31 31 30 30 30 29 29 28 28 28 28 29 29 27 24 20
24 25 27 28 28 28 30 32 33 34 35 35 35 34 34 33 32 32 32 32 33 33 33 33 33 33 33 33 33 32 32 32 31 31 30 29 29 29 29 28 28 26 22 19
27 29 31 32 33 33 34 35 36 36 35 35 35 35 33 33 33 34 34 35 35 36 36 36 35 35 35 34 34 34 34 33 33 33 32 32 31 30 29 28 27 25 22 19
32 34 36 37 36 37 38 38 37 37 36 37 36 36 36 35 36 37 38 38 39 39 38 37 38 38 37 37 37 37 36 36 36 35 34 34 33 32 30 29 27 24 22 19
37 36 35 35 36 37 38 38 38 38 37 36 36 36 36 36 35 36 36 37 36 36 37 38 39 39 40 40 40 40 39 39 39 38 37 36 35 33 32 29 27 25 22 19
35 36 37 38 39 39 39 39 38 36 35 35 34 34 34 33 34 35 35 35 34 36 38 39 39 40 40 41 42 42 42 41 40 39 38 37 35 33 31 29 27 24 22 20
37 38 38 38 37 36 35 34 34 32 31 30 29 29 29 30 31 32 32 33 35 36 37 38 39 41 41 43 43 43 42 41 40 39 37 35 34 32 31 29 27 24 22 20
37 37 36 35 34 33 31 29 28 28 27 27 27 27 28 30 30 31 32 33 35 36 38 39 40 41 42 42 42 42 42 42 41 40 37 35 33 31 30 29 27 25 22 20
35 35 34 32 31 29 28 27 27 26 26 26 25 26 27 27 28 30 31 33 34 35 36 38 38 38 39 39 40 39 39 38 36 37 37 35 33 31 29 28 26 25 23 21
35 34 32 30 29 27 26 26 25 24 24 24 25 25 25 26 27 28 29 31 32 33 33 34 34 34 34 33 33 33 33 33 33 33 34 33 32 30 29 27 26 25 23 21
33 31 30 29 27 26 24 23 22 22 22 23 23 24 26 27 28 29 30 31 32 32 32 32 31 31 31 30 30 29 29 29 29 29 31 32 31 29 28 27 26 25 23 21
31 30 28 26 25 24 23 23 22 23 23 24 25 27 27 28 29 30 30 30 30 29 29 29 28 28 28 27 27 26 26 26 26 27 28 30 30 29 28 27 26 25 23 21
Wind_Direction
277 281 281 280 282 278 276 278 284 292 291 294 298 300 302 303 303 305 306 306 308 309 309 310 313 318 321 320 313 293 280 237 254 289 301 303 303 301 300 293 285 282 280 275
281 280 281 282 279 278 278 279 284 287 290 295 300 302 303 304 306 306 307 309 309 308 309 308 311 322 327 327 319 280 258 242 276 301 307 312 308 309 304 301 299 293 290 284
283 286 291 287 279 277 281 283 287 287 295 299 300 303 305 306 307 309 312 313 310 306 306 304 307 318 329 341 323 286 270 268 294 306 310 310 308 306 305 302 298 295 293 290
284 287 285 295 294 291 285 286 288 291 295 297 302 303 305 308 311 312 314 318 318 310 302 297 305 311 314 339 344 319 310 297 302 305 304 304 303 303 302 300 299 296 292 290
281 279 291 282 287 285 286 290 291 291 292 299 303 305 307 314 318 318 317 319 322 318 304 299 306 306 311 311 312 315 311 308 306 307 307 307 306 305 305 302 299 297 294 293
280 284 288 294 288 292 295 292 287 291 295 300 303 304 308 318 320 321 323 325 325 327 313 307 314 308 305 315 327 325 318 316 315 317 317 315 313 311 309 306 302 300 297 294
276 283 288 290 284 289 290 296 288 294 296 297 298 299 306 311 315 320 323 321 322 319 308 307 311 316 309 314 321 322 320 319 319 321 322 321 318 316 313 310 306 302 299 296
278 282 286 282 281 285 292 290 294 295 295 296 297 299 302 304 306 310 316 315 317 312 309 303 305 308 307 309 317 321 321 322 322 323 323 322 321 319 317 313 310 307 302 297
278 284 288 276 286 283 288 291 293 294 294 294 296 297 298 296 299 301 305 304 301 303 304 301 301 304 303 306 308 314 317 319 320 321 322 324 322 320 319 317 315 314 310 303
286 285 280 283 283 284 285 289 291 290 290 292 292 292 291 291 292 294 294 295 295 291 291 293 295 297 299 306 309 310 311 315 318 320 322 324 324 323 321 322 320 319 318 310
285 286 287 286 287 286 288 286 289 289 288 289 289 287 286 286 288 288 288 287 286 287 286 286 289 290 294 298 302 305 307 310 315 317 319 320 324 324 324 322 319 320 319 314
290 292 289 292 294 291 290 289 289 289 287 288 286 284 284 283 284 282 282 282 280 280 281 284 286 287 290 292 296 299 302 305 308 312 315 317 320 322 324 322 321 318 317 315
290 294 294 293 293 291 288 289 290 286 285 286 285 283 281 281 280 279 278 278 277 278 279 281 282 285 288 290 292 294 296 300 304 307 311 314 316 319 320 324 321 318 317 314
293 296 296 294 297 295 292 290 288 286 286 285 284 282 280 278 276 275 275 276 276 276 277 278 279 282 285 288 290 291 294 295 299 303 307 310 313 315 318 321 321 319 315 312
297 297 296 298 297 295 294 293 291 289 289 287 285 283 280 277 275 274 273 274 274 274 275 275 277 279 282 285 287 289 290 292 295 298 302 306 309 312 315 317 319 316 313 307
303 302 301 300 299 298 297 295 292 291 291 290 288 285 282 280 277 275 274 274 273 273 274 276 275 278 280 282 284 285 286 288 291 293 296 301 305 308 311 314 317 315 309 301
312 310 308 305 303 301 301 300 297 295 292 290 289 286 283 280 277 275 274 275 274 274 274 274 275 278 279 281 282 283 284 285 288 289 291 294 299 302 305 309 312 313 307 296
311 310 308 304 302 301 300 299 298 296 294 292 290 287 285 281 278 277 276 276 275 275 274 274 275 277 278 279 280 281 282 283 285 285 287 288 291 296 298 302 305 307 303 294
311 309 306 304 301 300 300 300 299 297 294 292 290 287 285 282 280 280 279 277 277 276 275 274 275 276 276 277 279 280 280 281 282 282 283 284 285 287 291 294 297 300 298 289
313 312 311 310 307 305 303 302 301 299 297 294 291 289 287 285 283 282 282 280 278 277 277 277 276 275 275 276 277 278 278 279 279 280 280 280 280 280 281 285 289 292 290 281
319 316 313 311 308 306 304 303 303 301 299 296 293 291 289 286 285 285 284 282 279 279 279 278 277 277 276 277 277 276 276 276 277 277 277 276 274 274 274 275 280 283 283 275
322 320 318 316 313 311 310 307 307 304 303 301 298 296 294 292 292 289 287 285 284 282 282 281 280 278 277 279 277 276 275 274 274 273 273 271 270 268 267 269 270 272 275 271
326 325 323 322 320 318 317 315 314 312 310 308 305 302 299 297 295 294 292 291 289 287 286 285 283 281 280 279 277 276 274 272 269 267 266 266 265 263 262 261 262 263 266 267
331 330 329 328 326 325 324 323 321 318 316 314 311 310 308 305 303 300 298 297 295 293 291 288 286 284 283 280 278 275 273 271 268 264 260 259 258 257 256 254 254 255 257 259
335 334 334 334 333 331 330 329 327 327 325 323 321 319 317 314 311 310 307 305 302 300 297 294 291 289 286 283 280 277 273 269 265 262 256 252 251 250 250 249 247 248 250 251
341 340 339 339 338 338 337 337 336 336 335 333 331 329 326 323 320 317 315 312 309 305 302 299 295 292 288 285 281 278 274 269 265 260 253 247 245 244 244 243 242 241 243 246
346 346 346 346 346 346 345 344 342 341 339 337 335 334 332 330 328 326 323 320 318 315 311 307 302 297 291 286 281 278 274 269 265 258 252 243 239 239 238 238 237 236 238 241